Wetterdaten: Montag, 22.09.2014
Datum Zeit Temperatur Luftfeuchte Luftdruck Regen Wind Richtung Richtung Taupunkt Windchill Windben
22.09.2014 00:00 10,5 C 95 % 1019,6 hPa 0,0 l/m 0,0 km/h (0 Bft) S-SO 157 9,7 C 22,8 C 0,0 km/h (0 Bft)
22.09.2014 00:10 10,5 C 95 % 1019,8 hPa 0,0 l/m 0,0 km/h (0 Bft) S-SO 157 9,7 C 22,8 C 0,0 km/h (0 Bft)
22.09.2014 00:20 10,5 C 95 % 1019,8 hPa 0,0 l/m 0,0 km/h (0 Bft) S-SO 157 9,7 C 22,8 C 0,0 km/h (0 Bft)
22.09.2014 00:30 10,5 C 95 % 1019,8 hPa 0,0 l/m 0,0 km/h (0 Bft) S-SO 157 9,7 C 22,8 C 0,0 km/h (0 Bft)
22.09.2014 00:40 10,5 C 95 % 1019,8 hPa 0,0 l/m 0,0 km/h (0 Bft) S-SO 157 9,7 C 22,8 C 0,0 km/h (0 Bft)
22.09.2014 00:50 10,5 C 95 % 1019,8 hPa 0,0 l/m 0,0 km/h (0 Bft) S-SO 157 9,7 C 22,8 C 0,0 km/h (0 Bft)
22.09.2014 01:00 10,4 C 95 % 1019,8 hPa 0,0 l/m 0,0 km/h (0 Bft) S-SO 157 9,6 C 22,8 C 0,0 km/h (0 Bft)
22.09.2014 01:10 10,5 C 95 % 1020,0 hPa 0,0 l/m 0,0 km/h (0 Bft) S-SO 157 9,7 C 22,8 C 0,0 km/h (0 Bft)
22.09.2014 01:20 10,4 C 95 % 1020,0 hPa 0,0 l/m 0,0 km/h (0 Bft) S-SO 157 9,6 C 22,8 C 0,0 km/h (0 Bft)
22.09.2014 01:30 10,4 C 95 % 1020,1 hPa 0,0 l/m 0,0 km/h (0 Bft) S-SO 157 9,6 C 22,8 C 0,0 km/h (0 Bft)
22.09.2014 01:40 10,4 C 95 % 1020,1 hPa 0,0 l/m 0,0 km/h (0 Bft) S-SO 157 9,6 C 22,8 C 0,0 km/h (0 Bft)
22.09.2014 01:50 10,1 C 95 % 1020,1 hPa 0,0 l/m 0,0 km/h (0 Bft) S-SO 157 9,3 C 22,8 C 0,0 km/h (0 Bft)
22.09.2014 02:00 10,0 C 95 % 1020,1 hPa 0,0 l/m 0,0 km/h (0 Bft) S-SO 157 9,2 C 22,8 C 0,0 km/h (0 Bft)
22.09.2014 02:10 9,9 C 95 % 1020,4 hPa 0,0 l/m 0,0 km/h (0 Bft) S-SO 157 9,1 C 22,8 C 0,0 km/h (0 Bft)
22.09.2014 02:20 9,9 C 95 % 1020,4 hPa 0,0 l/m 0,0 km/h (0 Bft) S-SO 157 9,1 C 22,8 C 0,0 km/h (0 Bft)
22.09.2014 02:30 9,9 C 95 % 1020,4 hPa 0,0 l/m 0,0 km/h (0 Bft) S-SO 157 9,1 C 22,8 C 0,0 km/h (0 Bft)
22.09.2014 02:40 9,8 C 95 % 1020,4 hPa 0,0 l/m 0,0 km/h (0 Bft) S-SO 157 9,0 C 22,8 C 0,0 km/h (0 Bft)
22.09.2014 02:50 9,7 C 95 % 1020,3 hPa 0,0 l/m 0,0 km/h (0 Bft) S-SO 157 8,9 C 22,8 C 0,0 km/h (0 Bft)
22.09.2014 03:00 9,7 C 95 % 1020,3 hPa 0,0 l/m 0,0 km/h (0 Bft) S-SO 157 8,9 C 22,8 C 0,0 km/h (0 Bft)
22.09.2014 03:10 9,7 C 95 % 1020,3 hPa 0,0 l/m 0,0 km/h (0 Bft) S-SO 157 8,9 C 22,8 C 0,0 km/h (0 Bft)
22.09.2014 03:20 9,6 C 95 % 1020,3 hPa 0,0 l/m 0,0 km/h (0 Bft) S-SO 157 8,8 C 22,8 C 0,0 km/h (0 Bft)
22.09.2014 03:28 9,4 C 95 % 1020,4 hPa 0,0 l/m 0,0 km/h (0 Bft) S-SO 157 8,6 C 22,8 C 0,0 km/h (0 Bft)
22.09.2014 03:30 9,4 C 95 % 1020,4 hPa 0,0 l/m 0,0 km/h (0 Bft) S-SO 157 8,6 C 22,8 C 0,0 km/h (0 Bft)
22.09.2014 03:40 9,2 C 95 % 1020,4 hPa 0,0 l/m 0,0 km/h (0 Bft) S-SO 157 8,4 C 22,8 C 0,0 km/h (0 Bft)
22.09.2014 03:50 9,0 C 95 % 1020,4 hPa 0,0 l/m 0,0 km/h (0 Bft) S-SO 157 8,2 C 22,8 C 0,0 km/h (0 Bft)
22.09.2014 04:00 8,8 C 96 % 1020,4 hPa 0,0 l/m 0,0 km/h (0 Bft) S-SO 157 8,2 C 22,8 C 0,0 km/h (0 Bft)
22.09.2014 04:10 8,9 C 96 % 1020,3 hPa 0,0 l/m 0,0 km/h (0 Bft) S-SO 157 8,3 C 22,8 C 0,0 km/h (0 Bft)
22.09.2014 04:20 9,0 C 95 % 1020,3 hPa 0,0 l/m 0,0 km/h (0 Bft) S-SO 157 8,2 C 22,8 C 0,0 km/h (0 Bft)
22.09.2014 04:30 9,0 C 95 % 1020,4 hPa 0,0 l/m 0,0 km/h (0 Bft) S-SO 157 8,2 C 22,8 C 0,0 km/h (0 Bft)
22.09.2014 04:40 8,9 C 96 % 1020,4 hPa 0,0 l/m 0,0 km/h (0 Bft) S-SO 157 8,3 C 22,8 C 0,0 km/h (0 Bft)
22.09.2014 04:50 8,8 C 96 % 1020,2 hPa 0,0 l/m 0,0 km/h (0 Bft) S-SO 157 8,2 C 22,8 C 0,0 km/h (0 Bft)
22.09.2014 05:00 8,8 C 96 % 1020,2 hPa 0,0 l/m 0,0 km/h (0 Bft) S-SO 157 8,2 C 22,8 C 0,0 km/h (0 Bft)
22.09.2014 05:10 8,7 C 96 % 1020,1 hPa 0,0 l/m 0,0 km/h (0 Bft) S-SO 157 8,1 C 22,8 C 0,0 km/h (0 Bft)
22.09.2014 05:20 8,6 C 96 % 1020,1 hPa 0,0 l/m 0,0 km/h (0 Bft) S-SO 157 8,0 C 22,8 C 0,0 km/h (0 Bft)
22.09.2014 05:30 8,6 C 96 % 1020,0 hPa 0,0 l/m 0,0 km/h (0 Bft) S-SO 157 8,0 C 22,8 C 0,0 km/h (0 Bft)
22.09.2014 05:40 8,5 C 96 % 1020,0 hPa 0,0 l/m 0,0 km/h (0 Bft) S-SO 157 7,9 C 22,8 C 0,0 km/h (0 Bft)
22.09.2014 05:50 8,6 C 96 % 1020,1 hPa 0,0 l/m 0,0 km/h (0 Bft) S-SO 157 8,0 C 22,8 C 0,0 km/h (0 Bft)
22.09.2014 06:00 8,7 C 96 % 1020,1 hPa 0,0 l/m 0,0 km/h (0 Bft) S-SO 157 8,1 C 22,8 C 0,0 km/h (0 Bft)
22.09.2014 06:10 8,5 C 96 % 1020,2 hPa 0,0 l/m 0,0 km/h (0 Bft) S-SO 157 7,9 C 22,8 C 0,0 km/h (0 Bft)
22.09.2014 06:20 8,1 C 96 % 1020,2 hPa 0,0 l/m 0,0 km/h (0 Bft) S-SO 157 7,5 C 22,8 C 0,0 km/h (0 Bft)
22.09.2014 06:30 8,3 C 96 % 1020,1 hPa 0,0 l/m 0,0 km/h (0 Bft) S-SO 157 7,7 C 22,8 C 0,0 km/h (0 Bft)
22.09.2014 06:40 8,4 C 96 % 1020,1 hPa 0,0 l/m 0,0 km/h (0 Bft) S-SO 157 7,8 C 22,8 C 0,0 km/h (0 Bft)
22.09.2014 06:50 8,4 C 96 % 1020,2 hPa 0,0 l/m 0,0 km/h (0 Bft) S-SO 157 7,8 C 22,8 C 0,0 km/h (0 Bft)
22.09.2014 07:00 8,5 C 96 % 1020,2 hPa 0,0 l/m 0,0 km/h (0 Bft) S-SO 157 7,9 C 22,8 C 0,0 km/h (0 Bft)
22.09.2014 07:10 8,5 C 96 % 1020,3 hPa 0,0 l/m 0,0 km/h (0 Bft) S-SO 157 7,9 C 22,8 C 0,0 km/h (0 Bft)
22.09.2014 07:20 8,5 C 96 % 1020,3 hPa 0,0 l/m 0,0 km/h (0 Bft) S-SO 157 7,9 C 22,8 C 0,0 km/h (0 Bft)
22.09.2014 07:28 8,5 C 96 % 1020,4 hPa 0,0 l/m 0,0 km/h (0 Bft) S-SO 157 7,9 C 22,8 C 0,0 km/h (0 Bft)
22.09.2014 07:30 8,5 C 96 % 1020,4 hPa 0,0 l/m 0,0 km/h (0 Bft) S-SO 157 7,9 C 22,8 C 0,0 km/h (0 Bft)
22.09.2014 07:40 8,5 C 96 % 1020,4 hPa 0,0 l/m 0,0 km/h (0 Bft) S-SO 157 7,9 C 22,8 C 0,0 km/h (0 Bft)
22.09.2014 07:50 8,6 C 96 % 1020,7 hPa 0,0 l/m 0,0 km/h (0 Bft) S-SO 157 8,0 C 22,8 C 0,0 km/h (0 Bft)
22.09.2014 08:00 8,7 C 96 % 1020,7 hPa 0,0 l/m 0,0 km/h (0 Bft) S-SO 157 8,1 C 22,8 C 0,0 km/h (0 Bft)
22.09.2014 08:10 8,8 C 96 % 1020,8 hPa 0,0 l/m 0,0 km/h (0 Bft) S-SO 157 8,2 C 22,8 C 0,0 km/h (0 Bft)
22.09.2014 08:20 8,9 C 96 % 1020,8 hPa 0,0 l/m 0,0 km/h (0 Bft) S-SO 157 8,3 C 22,8 C 0,0 km/h (0 Bft)
22.09.2014 08:30 8,9 C 96 % 1020,8 hPa 0,0 l/m 0,0 km/h (0 Bft) S-SO 157 8,3 C 22,8 C 0,0 km/h (0 Bft)
22.09.2014 08:40 9,1 C 96 % 1020,8 hPa 0,0 l/m 0,0 km/h (0 Bft) S-SO 157 8,5 C 22,8 C 0,0 km/h (0 Bft)
22.09.2014 08:50 9,1 C 96 % 1020,9 hPa 0,0 l/m 0,0 km/h (0 Bft) S-SO 157 8,5 C 22,8 C 0,0 km/h (0 Bft)
22.09.2014 09:00 8,9 C 96 % 1020,9 hPa 0,0 l/m 0,0 km/h (0 Bft) S-SO 157 8,3 C 22,8 C 0,0 km/h (0 Bft)
22.09.2014 09:10 9,0 C 96 % 1020,8 hPa 0,0 l/m 0,0 km/h (0 Bft) S-SO 157 8,4 C 22,8 C 0,0 km/h (0 Bft)
22.09.2014 09:20 8,9 C 96 % 1020,8 hPa 0,0 l/m 0,0 km/h (0 Bft) S-SO 157 8,3 C 22,8 C 0,0 km/h (0 Bft)
22.09.2014 09:30 9,5 C 96 % 1020,9 hPa 0,0 l/m 0,0 km/h (0 Bft) S-SO 157 8,9 C 22,8 C 0,0 km/h (0 Bft)
22.09.2014 09:40 10,0 C 95 % 1020,9 hPa 0,0 l/m 0,0 km/h (0 Bft) S-SO 157 9,2 C 22,8 C 0,0 km/h (0 Bft)
22.09.2014 09:50 9,9 C 95 % 1021,1 hPa 0,0 l/m 0,0 km/h (0 Bft) S-SO 157 9,1 C 22,8 C 0,0 km/h (0 Bft)
22.09.2014 10:00 10,0 C 95 % 1021,1 hPa 0,0 l/m 0,0 km/h (0 Bft) S-SO 157 9,2 C 22,8 C 0,0 km/h (0 Bft)
22.09.2014 10:10 10,0 C 95 % 1021,1 hPa 0,0 l/m 0,0 km/h (0 Bft) S-SO 157 9,2 C 22,8 C 0,0 km/h (0 Bft)
22.09.2014 10:20 11,9 C 94 % 1021,1 hPa 0,0 l/m 0,0 km/h (0 Bft) S-SO 157 11,0 C 22,8 C 0,0 km/h (0 Bft)
22.09.2014 10:29 11,5 C 94 % 1021,3 hPa 0,0 l/m 0,0 km/h (0 Bft) S-SO 157 10,6 C 22,8 C 0,0 km/h (0 Bft)
22.09.2014 10:30 11,5 C 94 % 1021,3 hPa 0,0 l/m 0,0 km/h (0 Bft) S-SO 157 10,6 C 22,8 C 0,0 km/h (0 Bft)
22.09.2014 10:40 11,2 C 92 % 1021,3 hPa 0,0 l/m 0,0 km/h (0 Bft) S-SO 157 9,9 C 22,8 C 0,0 km/h (0 Bft)
22.09.2014 10:50 11,3 C 92 % 1021,4 hPa 0,0 l/m 0,0 km/h (0 Bft) S-SO 157 10,0 C 22,8 C 0,0 km/h (0 Bft)
22.09.2014 11:00 11,9 C 91 % 1021,4 hPa 0,0 l/m 0,0 km/h (0 Bft) S-SO 157 10,5 C 22,8 C 0,0 km/h (0 Bft)
22.09.2014 11:10 11,4 C 89 % 1021,4 hPa 0,0 l/m 0,0 km/h (0 Bft) S-SO 157 9,7 C 22,8 C 0,0 km/h (0 Bft)
22.09.2014 11:20 10,6 C 90 % 1021,4 hPa 0,0 l/m 0,0 km/h (0 Bft) S-SO 157 9,0 C 22,8 C 0,0 km/h (0 Bft)
22.09.2014 11:30 10,3 C 91 % 1021,4 hPa 0,0 l/m 0,0 km/h (0 Bft) S-SO 157 8,9 C 22,8 C 0,0 km/h (0 Bft)
22.09.2014 11:40 10,4 C 92 % 1021,4 hPa 0,0 l/m 0,0 km/h (0 Bft) S-SO 157 9,2 C 22,8 C 0,0 km/h (0 Bft)
22.09.2014 11:50 10,4 C 92 % 1021,4 hPa 0,0 l/m 0,0 km/h (0 Bft) S-SO 157 9,2 C 22,8 C 0,0 km/h (0 Bft)
22.09.2014 12:00 10,2 C 92 % 1021,4 hPa 0,0 l/m 0,0 km/h (0 Bft) S-SO 157 9,0 C 22,8 C 0,0 km/h (0 Bft)
22.09.2014 12:10 10,7 C 93 % 1021,4 hPa 0,0 l/m 0,0 km/h (0 Bft) S-SO 157 9,6 C 22,8 C 0,0 km/h (0 Bft)
22.09.2014 12:20 10,6 C 92 % 1021,4 hPa 0,0 l/m 0,0 km/h (0 Bft) S-SO 157 9,4 C 22,8 C 0,0 km/h (0 Bft)
22.09.2014 12:30 10,9 C 92 % 1021,2 hPa 0,0 l/m 0,0 km/h (0 Bft) S-SO 157 9,7 C 22,8 C 0,0 km/h (0 Bft)
22.09.2014 12:40 12,1 C 89 % 1021,2 hPa 0,0 l/m 0,0 km/h (0 Bft) S-SO 157 10,3 C 22,8 C 0,0 km/h (0 Bft)
22.09.2014 12:50 12,6 C 83 % 1020,9 hPa 0,0 l/m 0,0 km/h (0 Bft) S-SO 157 9,8 C 22,8 C 0,0 km/h (0 Bft)
22.09.2014 13:00 11,3 C 81 % 1020,9 hPa 0,0 l/m 0,0 km/h (0 Bft) S-SO 157 8,2 C 22,8 C 0,0 km/h (0 Bft)
22.09.2014 13:10 11,5 C 82 % 1021,0 hPa 0,0 l/m 0,0 km/h (0 Bft) S-SO 157 8,5 C 22,8 C 0,0 km/h (0 Bft)
22.09.2014 13:20 11,3 C 82 % 1021,0 hPa 0,0 l/m 0,0 km/h (0 Bft) S-SO 157 8,3 C 22,8 C 0,0 km/h (0 Bft)
22.09.2014 13:30 11,3 C 79 % 1020,9 hPa 0,0 l/m 0,0 km/h (0 Bft) S-SO 157 7,8 C 22,8 C 0,0 km/h (0 Bft)
22.09.2014 13:40 12,9 C 72 % 1020,9 hPa 0,0 l/m 0,0 km/h (0 Bft) S-SO 157 8,0 C 22,8 C 0,0 km/h (0 Bft)
22.09.2014 13:50 13,2 C 71 % 1020,5 hPa 0,0 l/m 0,0 km/h (0 Bft) S-SO 157 8,1 C 22,8 C 0,0 km/h (0 Bft)
22.09.2014 14:00 14,3 C 61 % 1020,5 hPa 0,0 l/m 0,0 km/h (0 Bft) S-SO 157 6,9 C 22,8 C 0,0 km/h (0 Bft)
22.09.2014 14:10 12,9 C 59 % 1020,2 hPa 0,0 l/m 0,0 km/h (0 Bft) S-SO 157 5,1 C 22,8 C 0,0 km/h (0 Bft)
22.09.2014 14:20 12,4 C 63 % 1020,2 hPa 0,0 l/m 0,0 km/h (0 Bft) S-SO 157 5,6 C 22,8 C 0,0 km/h (0 Bft)
22.09.2014 14:28 12,9 C 58 % 1020,0 hPa 0,0 l/m 0,0 km/h (0 Bft) S-SO 157 4,8 C 22,8 C 0,0 km/h (0 Bft)
22.09.2014 14:30 12,9 C 58 % 1020,0 hPa 0,0 l/m 0,0 km/h (0 Bft) S-SO 157 4,8 C 22,8 C 0,0 km/h (0 Bft)
22.09.2014 14:40 14,2 C 57 % 1020,0 hPa 0,0 l/m 0,0 km/h (0 Bft) S-SO 157 5,8 C 22,8 C 0,0 km/h (0 Bft)
22.09.2014 14:50 12,2 C 56 % 1019,9 hPa 0,0 l/m 0,0 km/h (0 Bft) S-SO 157 3,7 C 22,8 C 0,0 km/h (0 Bft)
22.09.2014 15:00 11,8 C 56 % 1019,9 hPa 0,0 l/m 0,0 km/h (0 Bft) S-SO 157 3,3 C 22,8 C 0,0 km/h (0 Bft)
22.09.2014 15:10 12,6 C 56 % 1019,9 hPa 0,0 l/m 0,0 km/h (0 Bft) S-SO 157 4,1 C 22,8 C 0,0 km/h (0 Bft)
22.09.2014 15:20 14,4 C 56 % 1019,9 hPa 0,0 l/m 0,0 km/h (0 Bft) S-SO 157 5,7 C 22,8 C 0,0 km/h (0 Bft)
22.09.2014 15:30 13,9 C 49 % 1019,5 hPa 0,0 l/m 0,0 km/h (0 Bft) S-SO 157 3,4 C 22,8 C 0,0 km/h (0 Bft)
22.09.2014 15:40 13,4 C 54 % 1019,5 hPa 0,0 l/m 0,0 km/h (0 Bft) S-SO 157 4,3 C 22,8 C 0,0 km/h (0 Bft)
22.09.2014 15:50 11,7 C 59 % 1019,6 hPa 0,0 l/m 0,0 km/h (0 Bft) S-SO 157 4,0 C 22,8 C 0,0 km/h (0 Bft)
22.09.2014 16:00 11,5 C 62 % 1019,6 hPa 0,0 l/m 0,0 km/h (0 Bft) S-SO 157 4,5 C 22,8 C 0,0 km/h (0 Bft)
22.09.2014 16:10 10,7 C 66 % 1019,3 hPa 0,0 l/m 0,0 km/h (0 Bft) S-SO 157 4,6 C 22,8 C 0,0 km/h (0 Bft)
22.09.2014 16:20 10,1 C 69 % 1019,3 hPa 0,0 l/m 0,0 km/h (0 Bft) S-SO 157 4,7 C 22,8 C 0,0 km/h (0 Bft)
22.09.2014 16:30 9,0 C 83 % 1019,6 hPa 0,0 l/m 0,0 km/h (0 Bft) S-SO 157 6,3 C 22,8 C 0,0 km/h (0 Bft)
22.09.2014 16:40 8,8 C 86 % 1019,6 hPa 0,0 l/m 0,0 km/h (0 Bft) S-SO 157 6,6 C 22,8 C 0,0 km/h (0 Bft)
22.09.2014 16:50 8,7 C 88 % 1019,4 hPa 0,0 l/m 0,0 km/h (0 Bft) S-SO 157 6,8 C 22,8 C 0,0 km/h (0 Bft)
22.09.2014 17:00 8,3 C 89 % 1019,4 hPa 0,0 l/m 0,0 km/h (0 Bft) S-SO 157 6,6 C 22,8 C 0,0 km/h (0 Bft)
22.09.2014 17:10 8,7 C 89 % 1019,8 hPa 0,0 l/m 0,0 km/h (0 Bft) S-SO 157 7,0 C 22,8 C 0,0 km/h (0 Bft)
22.09.2014 17:20 9,0 C 89 % 1019,8 hPa 0,0 l/m 0,0 km/h (0 Bft) S-SO 157 7,3 C 22,8 C 0,0 km/h (0 Bft)
22.09.2014 17:28 8,6 C 89 % 1019,8 hPa 0,0 l/m 0,0 km/h (0 Bft) S-SO 157 6,9 C 22,8 C 0,0 km/h (0 Bft)
22.09.2014 17:30 8,6 C 89 % 1019,8 hPa 0,0 l/m 0,0 km/h (0 Bft) S-SO 157 6,9 C 22,8 C 0,0 km/h (0 Bft)
22.09.2014 17:40 8,6 C 89 % 1019,8 hPa 0,0 l/m 0,0 km/h (0 Bft) S-SO 157 6,9 C 22,8 C 0,0 km/h (0 Bft)
22.09.2014 17:50 8,2 C 89 % 1019,9 hPa 0,0 l/m 0,0 km/h (0 Bft) S-SO 157 6,5 C 22,8 C 0,0 km/h (0 Bft)
22.09.2014 18:00 8,1 C 90 % 1019,9 hPa 0,0 l/m 0,0 km/h (0 Bft) S-SO 157 6,6 C 22,8 C 0,0 km/h (0 Bft)
22.09.2014 18:10 8,2 C 90 % 1020,0 hPa 0,0 l/m 0,0 km/h (0 Bft) S-SO 157 6,7 C 22,8 C 0,0 km/h (0 Bft)
22.09.2014 18:20 8,2 C 90 % 1020,0 hPa 0,0 l/m 0,0 km/h (0 Bft) S-SO 157 6,7 C 22,8 C 0,0 km/h (0 Bft)
22.09.2014 18:30 8,3 C 90 % 1020,1 hPa 0,0 l/m 0,0 km/h (0 Bft) S-SO 157 6,8 C 22,8 C 0,0 km/h (0 Bft)
22.09.2014 18:40 8,3 C 90 % 1020,1 hPa 0,0 l/m 0,0 km/h (0 Bft) S-SO 157 6,8 C 22,8 C 0,0 km/h (0 Bft)
22.09.2014 18:50 8,2 C 90 % 1020,2 hPa 0,0 l/m 0,0 km/h (0 Bft) S-SO 157 6,7 C 22,8 C 0,0 km/h (0 Bft)
22.09.2014 19:00 8,1 C 90 % 1020,2 hPa 0,0 l/m 0,0 km/h (0 Bft) S-SO 157 6,6 C 22,8 C 0,0 km/h (0 Bft)
22.09.2014 19:10 8,4 C 90 % 1020,8 hPa 0,0 l/m 0,0 km/h (0 Bft) S-SO 157 6,9 C 22,8 C 0,0 km/h (0 Bft)
22.09.2014 19:20 8,4 C 87 % 1020,8 hPa 0,0 l/m 0,0 km/h (0 Bft) S-SO 157 6,4 C 22,8 C 0,0 km/h (0 Bft)
22.09.2014 19:30 8,1 C 83 % 1020,9 hPa 0,0 l/m 0,0 km/h (0 Bft) S-SO 157 5,4 C 22,8 C 0,0 km/h (0 Bft)
22.09.2014 19:40 8,0 C 85 % 1020,9 hPa 0,0 l/m 0,0 km/h (0 Bft) S-SO 157 5,6 C 22,8 C 0,0 km/h (0 Bft)
22.09.2014 19:50 7,9 C 88 % 1021,0 hPa 0,0 l/m 0,0 km/h (0 Bft) S-SO 157 6,0 C 22,8 C 0,0 km/h (0 Bft)
22.09.2014 20:00 7,9 C 87 % 1021,0 hPa 0,0 l/m 0,0 km/h (0 Bft) S-SO 157 5,9 C 22,8 C 0,0 km/h (0 Bft)
22.09.2014 20:10 7,9 C 88 % 1021,2 hPa 0,0 l/m 0,0 km/h (0 Bft) S-SO 157 6,0 C 22,8 C 0,0 km/h (0 Bft)
22.09.2014 20:20 8,0 C 86 % 1021,2 hPa 0,0 l/m 0,0 km/h (0 Bft) S-SO 157 5,8 C 22,8 C 0,0 km/h (0 Bft)
22.09.2014 20:30 7,8 C 87 % 1021,4 hPa 0,0 l/m 0,0 km/h (0 Bft) S-SO 157 5,8 C 22,8 C 0,0 km/h (0 Bft)
22.09.2014 20:40 7,6 C 87 % 1021,4 hPa 0,0 l/m 0,0 km/h (0 Bft) S-SO 157 5,6 C 22,8 C 0,0 km/h (0 Bft)
22.09.2014 20:50 7,4 C 87 % 1021,5 hPa 0,0 l/m 0,0 km/h (0 Bft) S-SO 157 5,4 C 22,8 C 0,0 km/h (0 Bft)
22.09.2014 21:00 7,4 C 88 % 1021,5 hPa 0,0 l/m 0,0 km/h (0 Bft) S-SO 157 5,5 C 22,8 C 0,0 km/h (0 Bft)
22.09.2014 21:10 7,3 C 87 % 1021,9 hPa 0,0 l/m 0,0 km/h (0 Bft) S-SO 157 5,3 C 22,8 C 0,0 km/h (0 Bft)
22.09.2014 21:20 7,3 C 86 % 1021,9 hPa 0,0 l/m 0,0 km/h (0 Bft) S-SO 157 5,1 C 22,8 C 0,0 km/h (0 Bft)
22.09.2014 21:28 7,3 C 86 % 1022,1 hPa 0,0 l/m 0,0 km/h (0 Bft) S-SO 157 5,1 C 22,8 C 0,0 km/h (0 Bft)
22.09.2014 21:30 7,3 C 86 % 1022,1 hPa 0,0 l/m 0,0 km/h (0 Bft) S-SO 157 5,1 C 22,8 C 0,0 km/h (0 Bft)
22.09.2014 21:40 7,2 C 86 % 1022,1 hPa 0,0 l/m 0,0 km/h (0 Bft) S-SO 157 5,0 C 22,8 C 0,0 km/h (0 Bft)
22.09.2014 21:50 7,1 C 87 % 1022,0 hPa 0,0 l/m 0,0 km/h (0 Bft) S-SO 157 5,1 C 22,8 C 0,0 km/h (0 Bft)
22.09.2014 22:00 7,0 C 87 % 1022,0 hPa 0,0 l/m 0,0 km/h (0 Bft) S-SO 157 5,0 C 22,8 C 0,0 km/h (0 Bft)
22.09.2014 22:10 6,9 C 87 % 1022,3 hPa 0,0 l/m 0,0 km/h (0 Bft) S-SO 157 4,9 C 22,8 C 0,0 km/h (0 Bft)
22.09.2014 22:20 6,8 C 87 % 1022,3 hPa 0,0 l/m 0,0 km/h (0 Bft) S-SO 157 4,8 C 22,8 C 0,0 km/h (0 Bft)
22.09.2014 22:30 6,5 C 87 % 1022,3 hPa 0,0 l/m 0,0 km/h (0 Bft) S-SO 157 4,5 C 22,8 C 0,0 km/h (0 Bft)
22.09.2014 22:40 6,4 C 88 % 1022,3 hPa 0,0 l/m 0,0 km/h (0 Bft) S-SO 157 4,6 C 22,8 C 0,0 km/h (0 Bft)
22.09.2014 22:50 6,4 C 88 % 1022,4 hPa 0,0 l/m 0,0 km/h (0 Bft) S-SO 157 4,6 C 22,8 C 0,0 km/h (0 Bft)
22.09.2014 23:00 6,4 C 88 % 1022,4 hPa 0,0 l/m 0,0 km/h (0 Bft) S-SO 157 4,6 C 22,8 C 0,0 km/h (0 Bft)
22.09.2014 23:10 6,3 C 88 % 1022,3 hPa 0,0 l/m 0,0 km/h (0 Bft) S-SO 157 4,5 C 22,8 C 0,0 km/h (0 Bft)
22.09.2014 23:20 6,1 C 88 % 1022,3 hPa 0,0 l/m 0,0 km/h (0 Bft) S-SO 157 4,3 C 22,8 C 0,0 km/h (0 Bft)
22.09.2014 23:30 6,2 C 89 % 1022,7 hPa 0,0 l/m 0,0 km/h (0 Bft) S-SO 157 4,5 C 22,8 C 0,0 km/h (0 Bft)
22.09.2014 23:40 6,1 C 88 % 1022,7 hPa 0,0 l/m 0,0 km/h (0 Bft) S-SO 157 4,3 C 22,8 C 0,0 km/h (0 Bft)
22.09.2014 23:50 5,9 C 89 % 1022,7 hPa 0,0 l/m 0,0 km/h (0 Bft) S-SO 157 4,2 C 22,8 C 0,0 km/h (0 Bft)
_ Min-Zeit 23:50 15:30 16:20 - 23:50 - - 15:00 23:50 23:50
Minimum _ 5,9 C 49 % 1019,3 hPa - 0,0 km/h (0 Bft) - - 3,3 C 22,8 C 0,0 km/h (0 Bft)
_ Max-Zeit 15:20 09:30 23:50 23:50 23:50 - - 10:20 23:50 23:50
Maximum _ 14,4 C 96 % 1022,7 hPa 0,0 l/m 0,0 km/h
S-SO (0 Bft)
- - 11,0 C 22,8 C 0,0 km/h
S-SO (0 Bft)
Durchschnitt _ 9,4 C 88 % 1020,7 hPa #0,0 l/m 0,0 km/h (0 Bft) - - - 7,4 C 22,8 C 0,0 km/h (0 Bft)